Fairbanks, AK

9:40 PM AKST on December 06, 2019 (GMT -0900)
Fairbanks International

Weather History for PAFA - January, 1975

Change the Weather History Date:

Monday, January 13, 1975

  Actual Average Record
Temperature  
Mean Temperature -19 °F -9 °F  
Max Temperature -9 °F 0 °F 34 °F (1917)
Min Temperature -29 °F -17 °F -65 °F (1934)
Degree Days  
Heating Degree Days 84 74  
Month to date heating degree days 946  
Since 1 July heating degree days 7218  
Cooling Degree Days 0 0  
Month to date cooling degree days 0  
Year to date cooling degree days 0  
Moisture  
Dew Point -30 °F    
Average Humidity 50    
Maximum Humidity 73    
Minimum Humidity 43    
Precipitation  
Precipitation 0.00 in 0.02 in 0.75 in (1993)
Month to date precipitation 0.27  
Year to date precipitation 0.27  
Snow  
Snow 0.00 in 0.30 in 10.10 in (1993)
Month to date snowfall 4.7  
Since 1 July snowfall 42.6  
Snow Depth -    
Sea Level Pressure  
Sea Level Pressure 29.93 in    
Wind  
Wind Speed 7 mph (NNE)    
Max Wind Speed 10 mph    
Max Gust Speed -    
Visibility 16 miles    
Events      
T = Trace of Precipitation, MM = Missing Value Source: NWS Daily Summary

Daily Weather History Graph

Daily Weather History Graph

Search for Another Location

Airport or City:

Astronomy

Jan. 13, 1975 Rise Set
Actual Time 9:32 AM AHST 2:28 PM AHST
Civil Twilight 8:19 AM AHST 3:40 PM AHST
Nautical Twilight 7:12 AM AHST 4:48 PM AHST
Astronomical Twilight 6:13 AM AHST 5:47 PM AHST
Moon 9:06 AM AHST (1/13) 5:16 PM AHST (1/13)
Length of Visible Light 7h 20m
Length of Day
4h 55m
New Moon, 2% of the Moon is Illuminated
Jan 13
New Moon
Jan 20
First Quarter
Jan 27
Full
Feb 2
Last Quarter
Feb 10
New

Hourly Weather History & Observations

Time (AHST) Temp. Windchill Dew Point Humidity Pressure Visibility Wind Dir Wind Speed Gust Speed Precip Events Conditions
12:00 AM -9.9 °F -28.6 °F -25.1 °F 47% 29.82 in 15.0 mi NNE 10.4 mph - N/A   Overcast
1:00 AM -9.9 °F -26.3 °F -25.1 °F 47% 29.83 in 15.0 mi NNE 8.1 mph - N/A   Overcast
2:00 AM -9.0 °F -26.4 °F -25.1 °F 45% 29.84 in 15.0 mi NE 9.2 mph - N/A   Overcast
3:00 AM -11.0 °F -24.6 °F -27.0 °F 45% 29.84 in 15.0 mi North 5.8 mph - N/A   Overcast
4:00 AM -11.0 °F -24.6 °F -27.9 °F 43% 29.86 in 15.0 mi NNE 5.8 mph - N/A   Overcast
5:00 AM -11.9 °F -21.5 °F -27.9 °F 45% 29.86 in 15.0 mi ENE 3.5 mph - N/A   Overcast
6:00 AM - - - N/A% 29.87 in 15.0 mi East 5.8 mph - N/A   Overcast
7:00 AM -11.9 °F -27.3 °F -27.9 °F 45% 29.88 in 15.0 mi NE 6.9 mph - N/A   Overcast
8:00 AM -11.0 °F -27.6 °F -27.0 °F 45% 29.91 in 15.0 mi NE 8.1 mph - N/A   Overcast
9:00 AM -11.9 °F -25.7 °F -27.0 °F 47% 29.91 in 15.0 mi NE 5.8 mph - N/A   Overcast
10:00 AM -11.9 °F -28.7 °F -27.9 °F 45% 29.93 in 20.0 mi ENE 8.1 mph - N/A   Overcast
11:00 AM -14.1 °F -26.3 °F -29.9 °F 45% 29.93 in 30.0 mi North 4.6 mph - N/A   Overcast
12:00 PM - - - N/A% 29.94 in 30.0 mi NNE 4.6 mph - N/A   Overcast
1:00 PM -14.1 °F -31.3 °F -29.0 °F 47% 29.95 in 30.0 mi North 8.1 mph - N/A   Overcast
2:00 PM -14.1 °F -28.3 °F -29.0 °F 47% 29.96 in 30.0 mi NNE 5.8 mph - N/A   Overcast
3:00 PM - - - N/A% 29.97 in 30.0 mi North 5.8 mph - N/A   Overcast
4:00 PM -17.0 °F -29.7 °F -31.0 °F 49% 29.98 in 20.0 mi North 4.6 mph - N/A   Unknown
5:00 PM -20.0 °F -33.3 °F -35.0 °F 46% 29.98 in 15.0 mi North 4.6 mph - N/A   Overcast
6:00 PM -22.0 °F -35.6 °F -36.0 °F 48% 29.99 in 15.0 mi North 4.6 mph - N/A   Mostly Cloudy
7:00 PM -22.0 °F -39.4 °F -36.9 °F 46% 30.00 in 15.0 mi North 6.9 mph - N/A   Mostly Cloudy
8:00 PM -24.0 °F -37.9 °F -36.9 °F 51% 30.00 in 15.0 mi North 4.6 mph - N/A   Mostly Cloudy
9:00 PM -26.0 °F -37.5 °F -33.0 °F 69% 30.02 in 15.0 mi North 3.5 mph - N/A   Mostly Cloudy
10:00 PM -29.0 °F -47.9 °F -35.0 °F 73% 30.03 in 15.0 mi North 6.9 mph - N/A   Partly Cloudy
11:00 PM -29.0 °F -46.0 °F -35.0 °F 73% 30.04 in 15.0 mi North 5.8 mph - N/A   Partly Cloudy